| time (UTC) | temp C | wind direction | speed KPH | gust KPH | rain 1hr cm | rain 24hr cm | rain mn cm | humidity % | barometer mb |
| 20260510140104 | 12 | 112 | 19.3 | 35.4 | 0.00 | 0.00 | 0.00 | 66 | 1015.0 |
| 20260510135604 | 12 | 122 | 14.5 | 27.4 | 0.00 | 0.00 | 0.00 | 66 | 1015.1 |
| 20260510134605 | 13 | 99 | 9.7 | 20.9 | 0.00 | 0.00 | 0.00 | 66 | 1015.1 |
| 20260510134104 | 13 | 74 | 14.5 | 27.4 | 0.00 | 0.00 | 0.00 | 66 | 1015.1 |
| 20260510131104 | 12 | 131 | 14.5 | 24.1 | 0.00 | 0.00 | 0.00 | 68 | 1015.3 |
| 20260510124104 | 13 | 111 | 9.7 | 19.3 | 0.00 | 0.00 | 0.00 | 67 | 1015.6 |
| 20260510122604 | 13 | 106 | 16.1 | 29.0 | 0.00 | 0.00 | 0.00 | 67 | 1015.6 |
| 20260510121604 | 13 | 107 | 11.3 | 32.2 | 0.00 | 0.00 | 0.00 | 66 | 1015.6 |
| 20260510121104 | 13 | 112 | 9.7 | 27.4 | 0.00 | 0.00 | 0.00 | 66 | 1015.6 |
| 20260510120104 | 13 | 116 | 14.5 | 32.2 | 0.00 | 0.00 | 0.00 | 67 | 1015.7 |
| 20260510115604 | 13 | 106 | 14.5 | 29.0 | 0.00 | 0.00 | 0.00 | 67 | 1015.7 |
| 20260510115103 | 13 | 72 | 11.3 | 22.5 | 0.00 | 0.00 | 0.00 | 68 | 1015.8 |
| 20260510113604 | 13 | 83 | 11.3 | 20.9 | 0.00 | 0.00 | 0.00 | 67 | 1015.9 |
| 20260510112104 | 13 | 101 | 8.0 | 20.9 | 0.00 | 0.00 | 0.00 | 66 | 1016.1 |
| 20260510111604 | 13 | 84 | 14.5 | 24.1 | 0.00 | 0.00 | 0.00 | 66 | 1016.2 |
| 20260510110603 | 13 | 108 | 11.3 | 24.1 | 0.00 | 0.00 | 0.00 | 65 | 1016.3 |
| 20260510105604 | 13 | 124 | 14.5 | 32.2 | 0.00 | 0.00 | 0.00 | 66 | 1016.4 |
| 20260510103604 | 14 | 114 | 12.9 | 33.8 | 0.00 | 0.00 | 0.00 | 64 | 1016.3 |
| 20260510102604 | 13 | 121 | 12.9 | 27.4 | 0.00 | 0.00 | 0.00 | 65 | 1016.3 |
| 20260510102104 | 13 | 114 | 16.1 | 32.2 | 0.00 | 0.00 | 0.00 | 65 | 1016.3 |
| 20260510100606 | 13 | 126 | 16.1 | 35.4 | 0.00 | 0.00 | 0.00 | 68 | 1016.4 |
| 20260510095603 | 12 | 121 | 11.3 | 24.1 | 0.00 | 0.00 | 0.00 | 70 | 1016.4 |
| 20260510095103 | 12 | 100 | 14.5 | 27.4 | 0.00 | 0.00 | 0.00 | 70 | 1016.4 |
| 20260510094104 | 12 | 121 | 14.5 | 27.4 | 0.00 | 0.00 | 0.00 | 70 | 1016.5 |
| 20260510093604 | 12 | 108 | 12.9 | 29.0 | 0.00 | 0.00 | 0.00 | 71 | 1016.5 |
| 20260510093103 | 12 | 112 | 14.5 | 25.7 | 0.00 | 0.00 | 0.00 | 71 | 1016.5 |
| 20260510091604 | 12 | 61 | 9.7 | 24.1 | 0.00 | 0.00 | 0.00 | 72 | 1016.5 |
| 20260510091104 | 12 | 113 | 14.5 | 25.7 | 0.00 | 0.00 | 0.00 | 72 | 1016.6 |
| 20260510090104 | 12 | 113 | 19.3 | 41.8 | 0.00 | 0.00 | 0.00 | 72 | 1016.8 |
| 20260510085103 | 12 | 106 | 11.3 | 22.5 | 0.00 | 0.00 | 0.00 | 73 | 1016.8 |
| 20260510084104 | 12 | 109 | 16.1 | 27.4 | 0.00 | 0.00 | 0.00 | 74 | 1016.9 |
| 20260510083604 | 12 | 122 | 16.1 | 32.2 | 0.00 | 0.00 | 0.00 | 75 | 1016.9 |
| 20260510083104 | 11 | 104 | 11.3 | 35.4 | 0.00 | 0.00 | 0.00 | 75 | 1016.9 |
| 20260510082604 | 11 | 95 | 11.3 | 24.1 | 0.00 | 0.00 | 0.00 | 76 | 1017.0 |
| 20260510082104 | 11 | 109 | 12.9 | 29.0 | 0.00 | 0.00 | 0.00 | 76 | 1017.0 |
| 20260510081603 | 11 | 95 | 12.9 | 27.4 | 0.00 | 0.00 | 0.00 | 76 | 1017.0 |
| 20260510080604 | 11 | 119 | 16.1 | 35.4 | 0.00 | 0.00 | 0.00 | 77 | 1017.0 |
| 20260510080103 | 11 | 95 | 11.3 | 24.1 | 0.00 | 0.00 | 0.00 | 77 | 1017.0 |
| 20260510075604 | 11 | 116 | 16.1 | 33.8 | 0.00 | 0.00 | 0.00 | 78 | 1016.9 |
| 20260510075104 | 11 | 114 | 11.3 | 22.5 | 0.00 | 0.00 | 0.00 | 78 | 1016.9 |
| 20260510074604 | 11 | 130 | 11.3 | 33.8 | 0.00 | 0.00 | 0.00 | 78 | 1016.9 |
| 20260510070603 | 10 | 124 | 14.5 | 32.2 | 0.00 | 0.00 | 0.00 | 80 | 1016.9 |
| 20260510065103 | 10 | 116 | 9.7 | 20.9 | 0.00 | 0.00 | 0.00 | 81 | 1016.9 |
| 20260510062103 | 10 | 116 | 14.5 | 27.4 | 0.00 | 0.00 | 0.00 | 82 | 1016.7 |
| 20260510061105 | 10 | 124 | 9.7 | 19.3 | 0.00 | 0.00 | 0.00 | 83 | 1016.7 |
| 20260510060605 | 10 | 89 | 8.0 | 27.4 | 0.00 | 0.00 | 0.00 | 83 | 1016.6 |
| 20260510054605 | 10 | 115 | 12.9 | 29.0 | 0.00 | 0.00 | 0.00 | 83 | 1016.7 |
| 20260510054105 | 10 | 112 | 9.7 | 24.1 | 0.00 | 0.00 | 0.00 | 83 | 1016.6 |
| 20260510053105 | 10 | 100 | 11.3 | 24.1 | 0.00 | 0.00 | 0.00 | 83 | 1016.7 |
| 20260510052607 | 10 | 100 | 4.8 | 22.5 | 0.00 | 0.00 | 0.00 | 83 | 1016.6 |
| 20260510045104 | 10 | 108 | 8.0 | 19.3 | 0.00 | 0.00 | 0.00 | 84 | 1016.5 |
| 20260510043605 | 9 | 116 | 8.0 | 27.4 | 0.00 | 0.00 | 0.00 | 84 | 1016.5 |
| 20260510041105 | 9 | 107 | 11.3 | 22.5 | 0.00 | 0.00 | 0.00 | 84 | 1016.6 |
| 20260510035605 | 9 | 107 | 9.7 | 19.3 | 0.00 | 0.00 | 0.00 | 84 | 1016.7 |
| 20260510034107 | 9 | 87 | 4.8 | 11.3 | 0.00 | 0.00 | 0.00 | 84 | 1016.8 |
| 20260510033107 | 9 | 110 | 4.8 | 12.9 | 0.00 | 0.00 | 0.00 | 84 | 1016.9 |
| 20260510031605 | 9 | 91 | 6.4 | 12.9 | 0.00 | 0.00 | 0.00 | 84 | 1016.9 |
| 20260510031104 | 9 | 97 | 4.8 | 12.9 | 0.00 | 0.00 | 0.00 | 84 | 1017.0 |
| 20260510030105 | 9 | 98 | 6.4 | 12.9 | 0.00 | 0.00 | 0.00 | 84 | 1017.0 |
| 20260510025106 | 9 | 97 | 4.8 | 16.1 | 0.00 | 0.00 | 0.00 | 83 | 1017.1 |
| 20260510024105 | 10 | 81 | 4.8 | 11.3 | 0.00 | 0.00 | 0.00 | 83 | 1017.1 |
| 20260510021605 | 10 | 79 | 4.8 | 16.1 | 0.00 | 0.00 | 0.00 | 82 | 1016.9 |
| 20260510020105 | 10 | 37 | 8.0 | 19.3 | 0.00 | 0.00 | 0.00 | 81 | 1016.9 |
| 20260510015104 | 10 | 120 | 6.4 | 12.9 | 0.00 | 0.00 | 0.00 | 80 | 1017.0 |
| 20260510013604 | 10 | 85 | 3.2 | 8.0 | 0.00 | 0.00 | 0.00 | 78 | 1017.1 |
| 20260510013104 | 10 | 86 | 3.2 | 12.9 | 0.00 | 0.00 | 0.00 | 77 | 1017.2 |
| 20260510012606 | 10 | 112 | 4.8 | 16.1 | 0.00 | 0.00 | 0.00 | 76 | 1017.2 |
| 20260510012105 | 11 | 88 | 6.4 | 19.3 | 0.00 | 0.00 | 0.00 | 75 | 1017.1 |
| 20260510005105 | 11 | 103 | 8.0 | 19.3 | 0.00 | 0.00 | 0.00 | 70 | 1017.0 |
| 20260510004605 | 11 | 108 | 6.4 | 16.1 | 0.00 | 0.00 | 0.00 | 69 | 1017.0 |
| 20260510002605 | 11 | 78 | 8.0 | 19.3 | 0.00 | 0.00 | 0.00 | 66 | 1017.0 |
| 20260510001104 | 12 | 115 | 9.7 | 22.5 | 0.00 | 0.00 | 0.00 | 67 | 1016.9 |
| 20260510000604 | 12 | 112 | 11.3 | 22.5 | 0.00 | 0.00 | 0.00 | 66 | 1016.9 |
| 20260510000104 | 12 | 106 | 8.0 | 19.3 | 0.00 | 0.00 | 0.00 | 66 | 1016.9 |
| 20260509234104 | 12 | 104 | 9.7 | 24.1 | 0.00 | 0.00 | 0.00 | 62 | 1016.8 |
| 20260509233605 | 13 | 121 | 11.3 | 24.1 | 0.00 | 0.00 | 0.00 | 61 | 1016.8 |
| 20260509230104 | 13 | 114 | 9.7 | 22.5 | 0.00 | 0.00 | 0.00 | 60 | 1016.9 |
| 20260509225105 | 13 | 115 | 9.7 | 20.9 | 0.00 | 0.00 | 0.00 | 58 | 1016.9 |
| 20260509224604 | 13 | 119 | 8.0 | 19.3 | 0.00 | 0.00 | 0.00 | 57 | 1016.8 |
| 20260509224104 | 13 | 113 | 9.7 | 19.3 | 0.00 | 0.00 | 0.00 | 57 | 1016.7 |
| 20260509223604 | 13 | 118 | 9.7 | 19.3 | 0.00 | 0.00 | 0.00 | 57 | 1016.7 |
| 20260509222105 | 14 | 124 | 9.7 | 19.3 | 0.00 | 0.00 | 0.00 | 56 | 1016.7 |
| 20260509221104 | 14 | 131 | 8.0 | 19.3 | 0.00 | 0.00 | 0.00 | 55 | 1016.7 |
| 20260509220104 | 14 | 125 | 11.3 | 22.5 | 0.00 | 0.00 | 0.00 | 54 | 1016.7 |
| 20260509215604 | 14 | 123 | 9.7 | 29.0 | 0.00 | 0.00 | 0.00 | 54 | 1016.8 |
| 20260509214104 | 14 | 127 | 6.4 | 12.9 | 0.00 | 0.00 | 0.00 | 52 | 1016.8 |
| 20260509213604 | 15 | 138 | 8.0 | 16.1 | 0.00 | 0.00 | 0.00 | 52 | 1016.8 |
| 20260509213105 | 15 | 147 | 8.0 | 12.9 | 0.00 | 0.00 | 0.00 | 51 | 1016.8 |
| 20260509212605 | 15 | 143 | 8.0 | 20.9 | 0.00 | 0.00 | 0.00 | 51 | 1016.7 |
| 20260509212105 | 15 | 141 | 11.3 | 20.9 | 0.00 | 0.00 | 0.00 | 50 | 1016.6 |
| 20260509210604 | 15 | 144 | 9.7 | 19.3 | 0.00 | 0.00 | 0.00 | 49 | 1016.3 |
| 20260509210106 | 15 | 138 | 11.3 | 20.9 | 0.00 | 0.00 | 0.00 | 49 | 1016.2 |
| 20260509205604 | 15 | 143 | 12.9 | 24.1 | 0.00 | 0.00 | 0.00 | 49 | 1016.3 |
| 20260509204605 | 15 | 146 | 8.0 | 14.5 | 0.00 | 0.00 | 0.00 | 49 | 1016.3 |
| 20260509204105 | 15 | 138 | 6.4 | 11.3 | 0.00 | 0.00 | 0.00 | 49 | 1016.3 |
| 20260509203605 | 15 | 132 | 9.7 | 19.3 | 0.00 | 0.00 | 0.00 | 50 | 1016.3 |
| 20260509203104 | 15 | 151 | 6.4 | 12.9 | 0.00 | 0.00 | 0.00 | 50 | 1016.3 |
| 20260509201104 | 15 | 153 | 11.3 | 19.3 | 0.00 | 0.00 | 0.00 | 50 | 1016.1 |
| 20260509200105 | 15 | 163 | 8.0 | 19.3 | 0.00 | 0.00 | 0.00 | 50 | 1016.0 |
| 20260509195605 | 15 | 155 | 9.7 | 19.3 | 0.00 | 0.00 | 0.00 | 50 | 1016.0 |
| 20260509195104 | 15 | 153 | 4.8 | 19.3 | 0.00 | 0.00 | 0.00 | 51 | 1016.0 |
| 20260509194605 | 16 | 186 | 8.0 | 19.3 | 0.00 | 0.00 | 0.00 | 51 | 1015.9 |
| 20260509192105 | 16 | 167 | 11.3 | 19.3 | 0.00 | 0.00 | 0.00 | 50 | 1015.6 |
| 20260509191105 | 16 | 153 | 11.3 | 20.9 | 0.00 | 0.00 | 0.00 | 50 | 1015.6 |
| 20260509185604 | 17 | 175 | 11.3 | 20.9 | 0.00 | 0.00 | 0.00 | 49 | 1015.6 |
| 20260509185105 | 17 | 182 | 11.3 | 19.3 | 0.00 | 0.00 | 0.00 | 49 | 1015.5 |
| 20260509183104 | 17 | 168 | 16.1 | 22.5 | 0.00 | 0.00 | 0.00 | 48 | 1015.3 |
| 20260509182604 | 17 | 170 | 12.9 | 19.3 | 0.00 | 0.00 | 0.00 | 47 | 1015.4 |
| 20260509182104 | 17 | 174 | 12.9 | 22.5 | 0.00 | 0.00 | 0.00 | 47 | 1015.4 |
| 20260509181606 | 17 | 178 | 11.3 | 20.9 | 0.00 | 0.00 | 0.00 | 47 | 1015.3 |
| 20260509181104 | 17 | 189 | 11.3 | 20.9 | 0.00 | 0.00 | 0.00 | 47 | 1015.3 |
| 20260509180604 | 18 | 163 | 16.1 | 24.1 | 0.00 | 0.00 | 0.00 | 46 | 1015.3 |
| 20260509175604 | 18 | 163 | 11.3 | 24.1 | 0.00 | 0.00 | 0.00 | 46 | 1015.2 |
| 20260509175104 | 18 | 156 | 11.3 | 19.3 | 0.00 | 0.00 | 0.00 | 45 | 1015.1 |
| 20260509172604 | 19 | 144 | 9.7 | 20.9 | 0.00 | 0.00 | 0.00 | 44 | 1014.9 |
| 20260509171604 | 20 | 147 | 12.9 | 24.1 | 0.00 | 0.00 | 0.00 | 43 | 1015.0 |
| 20260509171105 | 20 | 147 | 16.1 | 22.5 | 0.00 | 0.00 | 0.00 | 43 | 1015.0 |
| 20260509170105 | 20 | 144 | 12.9 | 24.1 | 0.00 | 0.00 | 0.00 | 42 | 1015.1 |
| 20260509165604 | 20 | 164 | 11.3 | 29.0 | 0.00 | 0.00 | 0.00 | 42 | 1015.1 |
| 20260509163604 | 21 | 159 | 14.5 | 22.5 | 0.00 | 0.00 | 0.00 | 42 | 1015.0 |
| 20260509163104 | 21 | 176 | 9.7 | 25.7 | 0.00 | 0.00 | 0.00 | 42 | 1015.0 |
| 20260509161105 | 21 | 166 | 14.5 | 20.9 | 0.00 | 0.00 | 0.00 | 43 | 1015.1 |
| 20260509155605 | 21 | 156 | 12.9 | 24.1 | 0.00 | 0.00 | 0.00 | 42 | 1015.2 |
| 20260509154604 | 21 | 169 | 14.5 | 25.7 | 0.00 | 0.00 | 0.00 | 42 | 1015.2 |
| 20260509151104 | 22 | 136 | 11.3 | 20.9 | 0.00 | 0.00 | 0.00 | 42 | 1015.2 |
| 20260509150105 | 22 | 135 | 11.3 | 24.1 | 0.00 | 0.00 | 0.00 | 42 | 1015.2 |
| 20260509145104 | 22 | 170 | 14.5 | 32.2 | 0.00 | 0.00 | 0.00 | 40 | 1015.2 |
| 20260509142604 | 22 | 170 | 9.7 | 25.7 | 0.00 | 0.00 | 0.00 | 41 | 1014.8 |
| 20260509142104 | 22 | 150 | 8.0 | 24.1 | 0.00 | 0.00 | 0.00 | 40 | 1014.8 |
| 20260509141605 | 22 | 143 | 11.3 | 19.3 | 0.00 | 0.00 | 0.00 | 40 | 1014.8 |